Location: Newark
(48.8604°N, 2.3376°E)
Time: 02:39:14
(UTC+00:00)

METEOR M2 - Visible Passes

Search period start: 29 November 2021 00:00
Search period end: 09 December 2021 00:00
Orbit: 819 x 827 km, 98.4° (Epoch: 28 November)

Date Brightness Start Highest point End Pass type
(mag) Time Alt. Az. Time Alt. Az. Time Alt. Az.
29 Nov ? 06:15:26 10° NE 06:19:38 23° E 06:23:47 10° SE visible
29 Nov ? 17:41:29 10° SE 17:46:40 52° ENE 17:51:54 10° N visible
29 Nov ? 19:22:39 10° SSW 19:27:07 26° W 19:31:38 10° NW visible
30 Nov ? 05:56:16 10° NE 05:59:26 16° E 06:02:36 10° SE visible
30 Nov ? 17:21:59 10° SE 17:26:52 37° ENE 17:31:47 10° N visible
30 Nov ? 19:02:04 10° SSW 19:07:02 37° W 19:12:02 10° NNW visible
01 Dec ? 05:38:24 10° ENE 05:39:11 10° E 05:39:58 10° E visible
01 Dec ? 17:02:41 10° ESE 17:07:07 27° ENE 17:11:34 10° N visible
01 Dec ? 18:41:44 10° S 18:47:00 54° W 18:52:17 10° NNW visible
02 Dec ? 16:43:39 10° ESE 16:47:26 20° ENE 16:51:13 10° NNE visible
02 Dec ? 18:21:38 10° S 18:27:01 78° WSW 18:32:26 10° NNW visible
02 Dec ? 20:06:01 10° WSW 20:08:05 12° W 20:10:10 10° WNW visible
03 Dec ? 06:35:29 10° NNE 06:40:19 33° E 06:45:07 10° SSE visible
03 Dec ? 18:01:44 10° SSE 18:07:06 75° ENE 18:12:30 10° NNW visible
03 Dec ? 19:44:16 10° SW 19:47:52 18° W 19:51:29 10° NW visible
04 Dec ? 06:15:58 10° NE 06:20:12 23° E 06:24:24 10° SE visible
04 Dec ? 17:42:02 10° SE 17:47:14 53° ENE 17:52:28 10° N visible
04 Dec ? 19:23:16 10° SSW 19:27:43 26° W 19:32:10 10° NW visible
05 Dec ? 05:56:46 10° NE 06:00:02 16° E 06:03:15 10° SE visible
05 Dec ? 17:22:31 10° SE 17:27:26 38° ENE 17:32:22 10° N visible
05 Dec ? 19:02:40 10° SSW 19:07:36 37° W 19:12:35 10° NNW visible
06 Dec ? 05:38:41 10° ENE 05:39:47 11° E 05:40:52 10° E visible
06 Dec ? 17:03:13 10° ESE 17:07:41 27° ENE 17:12:09 10° N visible
06 Dec ? 18:42:19 10° S 18:47:34 53° W 18:52:51 10° NNW visible
07 Dec ? 16:44:10 10° ESE 16:47:59 20° ENE 16:51:49 10° NNE visible
07 Dec ? 18:22:13 10° S 18:27:35 76° WSW 18:33:00 10° NNW visible
07 Dec ? 20:06:46 10° WSW 20:08:41 12° W 20:10:36 10° WNW visible
08 Dec ? 06:36:02 10° NNE 06:40:54 34° E 06:45:42 10° SSE visible
08 Dec ? 18:02:18 10° SSE 18:07:40 77° ENE 18:13:04 10° NNW visible
08 Dec ? 19:44:55 10° SW 19:48:27 18° W 19:51:59 10° NW visible
